Total_Precipitation_Accumulation
0.43 0.42 0.41 0.41 0.36 0.35 0.40 0.47 0.82 1.20 1.64 2.04 2.16 2.11 2.06 1.95 1.73 1.43 1.34 1.40 1.36 1.29 1.30 1.25 1.19 1.22 1.19 1.14 1.08 1.25 1.22 1.18 1.08 0.98 0.98 1.00 1.00 0.97 0.93 0.89 0.84 0.84 0.85 0.79
0.40 0.31 0.35 0.41 0.42 0.45 0.52 0.58 0.80 1.27 1.86 2.20 2.25 2.14 2.09 2.02 1.85 1.74 1.66 1.60 1.57 1.47 1.45 1.44 1.36 1.33 1.26 1.22 1.20 1.27 1.32 1.38 1.40 1.30 1.24 1.21 1.11 0.99 0.96 0.95 0.87 0.77 0.72 0.71
0.63 0.36 0.52 0.88 0.71 0.66 0.76 0.83 1.04 1.61 1.92 1.89 1.97 2.09 2.21 2.28 2.16 2.02 1.92 1.83 1.81 1.75 1.68 1.66 1.62 1.54 1.45 1.36 1.32 1.32 1.38 1.42 1.40 1.38 1.37 1.32 1.16 1.03 1.01 0.97 0.94 0.91 0.80 0.74
0.70 0.75 1.32 1.23 0.68 0.69 0.90 1.03 1.13 1.37 1.48 1.52 1.58 1.69 1.80 1.93 2.02 2.01 1.86 1.78 1.77 1.80 1.78 1.76 1.66 1.57 1.50 1.41 1.38 1.38 1.40 1.41 1.37 1.26 1.26 1.20 1.10 1.07 1.02 0.94 0.92 0.89 0.83 0.76
0.80 1.09 1.31 1.16 0.69 0.70 1.10 1.61 1.32 1.25 1.15 1.07 1.06 1.21 1.57 1.74 1.81 1.96 1.99 1.89 1.84 1.79 1.69 1.66 1.61 1.54 1.48 1.46 1.43 1.42 1.40 1.31 1.24 1.15 1.13 1.06 1.03 0.96 0.88 0.81 0.79 0.76 0.70 0.64
0.89 1.30 1.60 1.48 0.69 0.51 0.94 1.97 1.51 1.29 1.15 1.06 1.18 1.47 1.56 1.51 1.51 1.58 1.68 1.73 1.62 1.48 1.39 1.42 1.45 1.44 1.42 1.41 1.39 1.36 1.17 0.99 0.93 0.94 0.93 0.89 0.83 0.78 0.74 0.72 0.71 0.63 0.57 0.59
0.99 1.39 1.62 0.89 0.47 0.62 1.50 1.94 1.49 1.25 1.12 1.08 1.31 1.43 1.24 1.17 1.23 1.25 1.29 1.27 1.19 1.14 1.19 1.26 1.27 1.22 1.22 1.18 1.17 1.11 1.00 0.86 0.82 0.80 0.75 0.72 0.70 0.70 0.67 0.63 0.66 0.64 0.63 0.59
1.08 1.48 1.64 0.72 0.54 0.95 1.19 1.00 1.00 0.99 0.94 0.90 0.87 0.83 0.88 0.91 0.95 0.91 0.91 0.93 0.89 0.92 0.98 1.02 0.99 0.99 1.07 1.07 0.98 0.90 0.92 0.86 0.81 0.71 0.60 0.60 0.70 0.70 0.67 0.68 0.71 0.69 0.66 0.60
1.06 1.30 1.07 0.60 0.57 0.65 0.69 0.75 0.74 0.73 0.69 0.59 0.54 0.53 0.63 0.65 0.64 0.63 0.64 0.69 0.72 0.74 0.79 0.86 0.87 0.89 0.95 0.96 0.87 0.85 0.91 0.89 0.77 0.64 0.65 0.65 0.69 0.69 0.62 0.59 0.54 0.51 0.50 0.50
0.74 0.85 0.69 0.56 0.53 0.50 0.47 0.50 0.48 0.51 0.52 0.44 0.43 0.48 0.54 0.54 0.52 0.48 0.51 0.54 0.61 0.63 0.63 0.71 0.73 0.77 0.83 0.77 0.74 0.89 0.98 0.92 0.77 0.66 0.61 0.58 0.57 0.52 0.47 0.46 0.44 0.42 0.40 0.38
0.73 0.77 0.72 0.69 0.49 0.40 0.35 0.33 0.33 0.37 0.40 0.37 0.37 0.43 0.44 0.44 0.46 0.47 0.49 0.52 0.56 0.61 0.60 0.57 0.59 0.65 0.63 0.63 0.74 0.97 0.96 0.84 0.72 0.59 0.52 0.48 0.39 0.32 0.28 0.26 0.24 0.28 0.28 0.27
0.68 0.61 0.71 0.76 0.55 0.39 0.37 0.33 0.31 0.29 0.31 0.35 0.38 0.41 0.38 0.37 0.39 0.42 0.44 0.46 0.54 0.54 0.49 0.52 0.57 0.59 0.56 0.56 0.65 0.85 0.87 0.69 0.57 0.48 0.41 0.34 0.30 0.27 0.20 0.15 0.13 0.11 0.13 0.14
0.36 0.34 0.40 0.39 0.33 0.29 0.29 0.30 0.30 0.29 0.29 0.33 0.37 0.37 0.36 0.35 0.34 0.38 0.43 0.46 0.50 0.48 0.45 0.46 0.50 0.51 0.48 0.47 0.52 0.65 0.70 0.54 0.41 0.35 0.34 0.32 0.29 0.34 0.34 0.22 0.14 0.11 0.13 0.13
0.19 0.23 0.29 0.30 0.31 0.27 0.27 0.29 0.29 0.28 0.29 0.34 0.38 0.35 0.35 0.33 0.32 0.35 0.37 0.36 0.31 0.31 0.36 0.42 0.42 0.40 0.34 0.31 0.39 0.43 0.40 0.30 0.26 0.28 0.26 0.24 0.22 0.25 0.28 0.33 0.33 0.26 0.19 0.16
0.17 0.20 0.26 0.31 0.32 0.29 0.30 0.33 0.33 0.32 0.30 0.32 0.30 0.28 0.27 0.26 0.25 0.25 0.25 0.23 0.24 0.29 0.31 0.32 0.35 0.36 0.28 0.24 0.27 0.28 0.27 0.24 0.22 0.20 0.18 0.17 0.16 0.17 0.18 0.23 0.33 0.35 0.28 0.19
0.21 0.21 0.23 0.28 0.32 0.33 0.33 0.37 0.38 0.35 0.29 0.26 0.25 0.25 0.23 0.21 0.19 0.17 0.18 0.19 0.26 0.30 0.28 0.30 0.33 0.26 0.21 0.23 0.24 0.24 0.20 0.17 0.19 0.18 0.17 0.14 0.14 0.15 0.17 0.20 0.25 0.30 0.30 0.24
0.28 0.27 0.25 0.25 0.28 0.31 0.28 0.25 0.28 0.29 0.25 0.24 0.21 0.19 0.18 0.16 0.18 0.20 0.20 0.19 0.24 0.27 0.27 0.29 0.27 0.18 0.15 0.16 0.18 0.17 0.14 0.12 0.13 0.14 0.16 0.14 0.13 0.15 0.17 0.19 0.24 0.27 0.25 0.22
0.28 0.25 0.23 0.23 0.24 0.24 0.22 0.20 0.19 0.21 0.22 0.20 0.17 0.16 0.15 0.16 0.19 0.20 0.20 0.17 0.19 0.24 0.24 0.20 0.17 0.14 0.12 0.11 0.13 0.13 0.13 0.12 0.12 0.14 0.13 0.13 0.14 0.16 0.19 0.20 0.21 0.22 0.23 0.21
0.17 0.14 0.15 0.15 0.16 0.15 0.17 0.19 0.16 0.16 0.17 0.16 0.14 0.14 0.15 0.15 0.14 0.15 0.16 0.17 0.21 0.26 0.23 0.18 0.13 0.12 0.14 0.11 0.10 0.12 0.13 0.11 0.10 0.10 0.09 0.11 0.12 0.13 0.14 0.14 0.16 0.19 0.22 0.23
0.12 0.12 0.14 0.14 0.13 0.13 0.17 0.18 0.14 0.14 0.14 0.14 0.13 0.13 0.14 0.11 0.11 0.13 0.16 0.20 0.22 0.21 0.19 0.17 0.14 0.14 0.14 0.10 0.09 0.09 0.10 0.09 0.08 0.08 0.09 0.10 0.11 0.11 0.11 0.11 0.13 0.17 0.23 0.23
0.15 0.15 0.16 0.15 0.15 0.14 0.16 0.16 0.14 0.15 0.14 0.14 0.14 0.14 0.13 0.11 0.11 0.14 0.17 0.19 0.18 0.17 0.18 0.17 0.16 0.12 0.11 0.09 0.07 0.08 0.08 0.10 0.10 0.09 0.09 0.09 0.08 0.07 0.08 0.09 0.13 0.19 0.24 0.21
0.20 0.20 0.19 0.17 0.16 0.17 0.18 0.15 0.14 0.15 0.17 0.15 0.11 0.09 0.10 0.12 0.13 0.16 0.16 0.18 0.18 0.17 0.16 0.15 0.12 0.10 0.10 0.08 0.06 0.07 0.07 0.08 0.08 0.07 0.08 0.07 0.06 0.06 0.09 0.11 0.13 0.16 0.16 0.15
0.24 0.22 0.23 0.22 0.20 0.21 0.20 0.17 0.15 0.14 0.15 0.15 0.12 0.11 0.14 0.16 0.16 0.16 0.16 0.16 0.17 0.15 0.13 0.12 0.08 0.07 0.07 0.06 0.05 0.05 0.04 0.04 0.05 0.06 0.06 0.06 0.06 0.07 0.08 0.09 0.11 0.13 0.12 0.14
0.32 0.28 0.25 0.25 0.26 0.26 0.25 0.20 0.16 0.14 0.14 0.13 0.17 0.20 0.21 0.19 0.16 0.14 0.17 0.18 0.16 0.12 0.09 0.08 0.07 0.06 0.05 0.04 0.04 0.05 0.04 0.04 0.05 0.06 0.07 0.06 0.05 0.06 0.07 0.08 0.09 0.11 0.10 0.11
0.29 0.31 0.30 0.31 0.37 0.34 0.28 0.23 0.18 0.16 0.15 0.15 0.16 0.16 0.15 0.13 0.13 0.12 0.10 0.10 0.10 0.07 0.05 0.05 0.05 0.05 0.04 0.04 0.05 0.05 0.05 0.05 0.07 0.07 0.05 0.05 0.05 0.04 0.05 0.07 0.11 0.11 0.11 0.10
0.36 0.42 0.40 0.36 0.35 0.32 0.25 0.20 0.20 0.23 0.22 0.20 0.16 0.14 0.12 0.10 0.10 0.10 0.08 0.07 0.06 0.05 0.04 0.04 0.04 0.04 0.05 0.05 0.06 0.06 0.06 0.05 0.06 0.05 0.05 0.05 0.05 0.06 0.06 0.08 0.11 0.12 0.12 0.10
0.46 0.47 0.45 0.39 0.30 0.26 0.24 0.20 0.20 0.21 0.22 0.23 0.22 0.16 0.11 0.09 0.09 0.09 0.07 0.06 0.06 0.05 0.05 0.05 0.04 0.05 0.06 0.07 0.07 0.06 0.05 0.05 0.06 0.06 0.06 0.05 0.05 0.05 0.07 0.10 0.13 0.13 0.11 0.08